UAL312 KMIA-KEWR

Flight info

Callsign UAL312
Flight time 2h 32m
Altitude 34000
Route FOLZZ3 ALYRA GRUBR/N0465F330 Y299 SEELO/N0465F350 GARIC Q129 AARNN QUART PHLBO4
Aircraft B739/M-SDE2E3FGHIRWXY/LB1

Departure

Time 2026-04-21 15:26
Airport Miami International Airport (KMIA)

Arrival

Time 2026-04-21 17:59
Airport Newark Liberty International Airport (KEWR)
Time Latitude Longitude Altitude Speed Heading
2026-04-21 14:53 25.79195 -80.27607 18 ft 0 kts 267°
2026-04-21 15:12 25.79195 -80.27594 18 ft 4 kts 266°
2026-04-21 15:13 25.79197 -80.27574 17 ft 4 kts 262°
2026-04-21 15:13 25.79206 -80.27536 18 ft 4 kts 238°
2026-04-21 15:13 25.79221 -80.27521 18 ft 3 kts 181°
2026-04-21 15:13 25.79224 -80.27521 18 ft 0 kts 178°
2026-04-21 15:16 25.79217 -80.27520 19 ft 6 kts 178°
2026-04-21 15:17 25.79160 -80.27518 17 ft 8 kts 177°
2026-04-21 15:17 25.79102 -80.27515 15 ft 8 kts 178°
2026-04-21 15:17 25.79046 -80.27512 16 ft 8 kts 177°
2026-04-21 15:17 25.78992 -80.27508 17 ft 8 kts 176°
2026-04-21 15:18 25.78939 -80.27509 19 ft 8 kts 193°
2026-04-21 15:18 25.78904 -80.27552 18 ft 9 kts 250°
2026-04-21 15:18 25.78889 -80.27628 17 ft 11 kts 259°
2026-04-21 15:18 25.78881 -80.27724 17 ft 14 kts 266°
2026-04-21 15:19 25.78877 -80.27824 18 ft 13 kts 267°
2026-04-21 15:19 25.78874 -80.27921 20 ft 12 kts 271°
2026-04-21 15:19 25.78907 -80.28007 21 ft 13 kts 299°
2026-04-21 15:19 25.78953 -80.28098 21 ft 15 kts 300°
2026-04-21 15:20 25.79007 -80.28203 20 ft 16 kts 299°
2026-04-21 15:20 25.79066 -80.28318 20 ft 18 kts 300°
2026-04-21 15:20 25.79129 -80.28430 16 ft 17 kts 309°
2026-04-21 15:20 25.79200 -80.28549 15 ft 19 kts 299°
2026-04-21 15:21 25.79264 -80.28679 13 ft 19 kts 299°
2026-04-21 15:21 25.79326 -80.28804 12 ft 18 kts 299°
2026-04-21 15:21 25.79388 -80.28924 15 ft 18 kts 300°
2026-04-21 15:21 25.79447 -80.29039 15 ft 17 kts 300°
2026-04-21 15:22 25.79504 -80.29150 16 ft 16 kts 300°
2026-04-21 15:22 25.79560 -80.29258 18 ft 16 kts 300°
2026-04-21 15:22 25.79612 -80.29361 16 ft 15 kts 300°
2026-04-21 15:22 25.79663 -80.29461 15 ft 14 kts 299°
2026-04-21 15:23 25.79712 -80.29556 15 ft 14 kts 300°
2026-04-21 15:23 25.79765 -80.29659 12 ft 17 kts 300°
2026-04-21 15:23 25.79825 -80.29779 11 ft 18 kts 298°
2026-04-21 15:23 25.79877 -80.29881 12 ft 10 kts 299°
2026-04-21 15:24 25.79904 -80.29933 12 ft 5 kts 300°
2026-04-21 15:24 25.79908 -80.29941 12 ft 1 kts 300°
2026-04-21 15:24 25.79926 -80.29977 11 ft 9 kts 300°
2026-04-21 15:24 25.79956 -80.30035 12 ft 8 kts 299°
2026-04-21 15:25 25.79984 -80.30091 13 ft 8 kts 300°
2026-04-21 15:25 25.80028 -80.30128 14 ft 8 kts 345°
2026-04-21 15:25 25.80071 -80.30102 13 ft 8 kts 74°
2026-04-21 15:25 25.80076 -80.30016 12 ft 23 kts 88°
2026-04-21 15:26 25.80094 -80.29580 13 ft 89 kts 87°
2026-04-21 15:26 25.80132 -80.28676 18 ft 143 kts 87°
2026-04-21 15:26 25.80216 -80.27475 307 ft 163 kts 82°
2026-04-21 15:26 25.80319 -80.26177 883 ft 171 kts 84°
2026-04-21 15:27 25.80128 -80.24865 1700 ft 181 kts 108°
2026-04-21 15:27 25.79524 -80.23612 2423 ft 188 kts 113°
2026-04-21 15:27 25.78856 -80.22293 2869 ft 202 kts 113°
2026-04-21 15:27 25.78159 -80.20907 3403 ft 209 kts 113°
2026-04-21 15:28 25.77466 -80.19470 3848 ft 217 kts 112°
2026-04-21 15:28 25.76759 -80.17953 4287 ft 226 kts 113°
2026-04-21 15:28 25.76031 -80.16385 4755 ft 232 kts 114°
2026-04-21 15:28 25.75278 -80.14783 5255 ft 236 kts 115°
2026-04-21 15:29 25.74501 -80.13158 5747 ft 240 kts 116°
2026-04-21 15:29 25.73857 -80.11428 6156 ft 248 kts 96°
2026-04-21 15:29 25.74018 -80.09507 6462 ft 259 kts 64°
2026-04-21 15:29 25.75124 -80.07854 6633 ft 278 kts 44°
2026-04-21 15:30 25.76453 -80.06330 7487 ft 269 kts 45°
2026-04-21 15:30 25.77702 -80.04818 8284 ft 268 kts 46°
2026-04-21 15:30 25.78969 -80.03252 8678 ft 281 kts 46°
2026-04-21 15:30 25.80285 -80.01619 9257 ft 286 kts 46°
2026-04-21 15:31 25.81621 -79.99957 9889 ft 290 kts 46°
2026-04-21 15:31 25.82983 -79.98262 10346 ft 301 kts 46°
2026-04-21 15:31 25.84426 -79.96468 10485 ft 321 kts 46°
2026-04-21 15:31 25.85961 -79.94560 10634 ft 341 kts 46°
2026-04-21 15:32 25.87580 -79.92546 10774 ft 359 kts 46°
2026-04-21 15:32 25.89284 -79.90426 10899 ft 376 kts 46°
2026-04-21 15:32 25.91062 -79.88209 11029 ft 390 kts 46°
2026-04-21 15:32 25.92883 -79.85935 11357 ft 397 kts 46°
2026-04-21 15:33 25.94728 -79.83629 11816 ft 400 kts 46°
2026-04-21 15:33 25.96579 -79.81314 12305 ft 402 kts 46°
2026-04-21 15:33 25.98446 -79.78980 12759 ft 405 kts 45°
2026-04-21 15:33 26.00326 -79.76633 13185 ft 409 kts 45°
2026-04-21 15:34 26.02226 -79.74260 13611 ft 412 kts 45°
2026-04-21 15:34 26.04138 -79.71867 14034 ft 415 kts 45°
2026-04-21 15:34 26.06063 -79.69454 14416 ft 418 kts 45°
2026-04-21 15:34 26.07975 -79.67061 14799 ft 420 kts 45°
2026-04-21 15:35 26.09924 -79.64622 15165 ft 423 kts 45°
2026-04-21 15:35 26.11827 -79.62105 15532 ft 428 kts 49°
2026-04-21 15:35 26.13585 -79.59407 15901 ft 431 kts 52°
2026-04-21 15:35 26.15282 -79.56638 16264 ft 434 kts 53°
2026-04-21 15:36 26.16980 -79.53846 16613 ft 437 kts 52°
2026-04-21 15:36 26.18701 -79.51054 16960 ft 439 kts 52°
2026-04-21 15:36 26.20450 -79.48260 17327 ft 441 kts 52°
2026-04-21 15:36 26.22219 -79.45458 17655 ft 443 kts 52°
2026-04-21 15:37 26.24005 -79.42641 17993 ft 446 kts 52°
2026-04-21 15:37 26.25799 -79.39812 18321 ft 448 kts 52°
2026-04-21 15:37 26.27597 -79.36974 18638 ft 450 kts 51°
2026-04-21 15:37 26.29622 -79.34332 18874 ft 446 kts 37°
2026-04-21 15:38 26.32174 -79.32401 19166 ft 443 kts 28°
2026-04-21 15:38 26.34804 -79.30607 19454 ft 444 kts 28°
2026-04-21 15:38 26.37446 -79.28783 19708 ft 447 kts 28°
2026-04-21 15:38 26.40088 -79.26935 19960 ft 449 kts 28°
2026-04-21 15:39 26.42701 -79.25091 20225 ft 451 kts 28°
2026-04-21 15:39 26.45361 -79.23202 20485 ft 453 kts 29°
2026-04-21 15:39 26.48022 -79.21303 20734 ft 455 kts 29°
2026-04-21 15:39 26.50701 -79.19389 20975 ft 457 kts 29°
2026-04-21 15:40 26.53385 -79.17470 21215 ft 459 kts 29°
2026-04-21 15:40 26.56083 -79.15540 21451 ft 461 kts 28°
2026-04-21 15:40 26.58790 -79.13603 21682 ft 463 kts 28°
2026-04-21 15:40 26.61512 -79.11655 21907 ft 465 kts 28°
2026-04-21 15:41 26.64238 -79.09703 22129 ft 467 kts 28°
2026-04-21 15:41 26.66984 -79.07736 22346 ft 469 kts 28°
2026-04-21 15:41 26.69735 -79.05764 22556 ft 471 kts 28°
2026-04-21 15:41 26.72502 -79.03779 22759 ft 473 kts 28°
2026-04-21 15:42 26.75281 -79.01786 22954 ft 475 kts 28°
2026-04-21 15:42 26.78065 -78.99786 23166 ft 476 kts 28°
2026-04-21 15:42 26.80866 -78.97774 23357 ft 478 kts 28°
2026-04-21 15:42 26.83598 -78.95810 23535 ft 480 kts 28°
2026-04-21 15:43 26.86414 -78.93784 23731 ft 482 kts 28°
2026-04-21 15:43 26.89245 -78.91747 23914 ft 483 kts 28°
2026-04-21 15:43 26.92078 -78.89706 24061 ft 485 kts 28°
2026-04-21 15:43 26.94918 -78.87659 24249 ft 486 kts 28°
2026-04-21 15:44 26.97766 -78.85605 24443 ft 486 kts 28°
2026-04-21 15:44 27.00616 -78.83548 24629 ft 487 kts 28°
2026-04-21 15:44 27.03466 -78.81490 24820 ft 488 kts 28°
2026-04-21 15:44 27.06322 -78.79427 25001 ft 488 kts 28°
2026-04-21 15:45 27.09146 -78.77385 25178 ft 489 kts 28°
2026-04-21 15:45 27.12017 -78.75308 25358 ft 490 kts 28°
2026-04-21 15:45 27.14888 -78.73230 25539 ft 491 kts 28°
2026-04-21 15:45 27.17767 -78.71145 25721 ft 491 kts 28°
2026-04-21 15:46 27.20642 -78.69061 25916 ft 492 kts 27°
2026-04-21 15:46 27.23520 -78.66973 26163 ft 491 kts 27°
2026-04-21 15:46 27.26386 -78.64898 26446 ft 489 kts 26°
2026-04-21 15:46 27.29364 -78.63281 26680 ft 476 kts 11°
2026-04-21 15:47 27.32572 -78.62619 26964 ft 466 kts
2026-04-21 15:47 27.35794 -78.62242 27266 ft 464 kts
2026-04-21 15:47 27.39012 -78.61876 27537 ft 464 kts
2026-04-21 15:47 27.42224 -78.61502 27811 ft 463 kts
2026-04-21 15:48 27.45438 -78.61115 28123 ft 462 kts
2026-04-21 15:48 27.48629 -78.60717 28468 ft 461 kts
2026-04-21 15:48 27.51823 -78.60309 28802 ft 460 kts
2026-04-21 15:48 27.54958 -78.59903 29111 ft 459 kts
2026-04-21 15:49 27.58136 -78.59490 29434 ft 458 kts
2026-04-21 15:49 27.61306 -78.59076 29774 ft 457 kts
2026-04-21 15:49 27.64465 -78.58664 30121 ft 456 kts
2026-04-21 15:49 27.67612 -78.58253 30448 ft 455 kts
2026-04-21 15:50 27.70757 -78.57843 30735 ft 455 kts 360°
2026-04-21 15:50 27.73900 -78.57433 30996 ft 454 kts 360°
2026-04-21 15:50 27.77045 -78.57023 31239 ft 454 kts 360°
2026-04-21 15:50 27.80142 -78.56619 31496 ft 454 kts 360°
2026-04-21 15:51 27.83278 -78.56210 31774 ft 453 kts 360°
2026-04-21 15:51 27.86362 -78.55807 32033 ft 452 kts 360°
2026-04-21 15:51 27.89493 -78.55398 32275 ft 451 kts 360°
2026-04-21 15:51 27.92613 -78.54990 32538 ft 450 kts 360°
2026-04-21 15:52 27.95727 -78.54582 32828 ft 449 kts 360°
2026-04-21 15:52 27.98830 -78.54175 33070 ft 448 kts 360°
2026-04-21 15:52 28.00883 -78.53907 33206 ft 449 kts 360°
2026-04-21 15:52 28.05038 -78.53363 33327 ft 450 kts 360°
2026-04-21 15:53 28.11254 -78.52549 33340 ft 449 kts
2026-04-21 15:53 28.17462 -78.51732 33333 ft 448 kts
2026-04-21 15:54 28.23614 -78.50923 33340 ft 447 kts
2026-04-21 15:54 28.29797 -78.50109 33331 ft 446 kts
2026-04-21 15:55 28.35979 -78.49295 33339 ft 446 kts
2026-04-21 15:55 28.42116 -78.48486 33338 ft 447 kts
2026-04-21 15:56 28.46751 -78.47874 33338 ft 448 kts
2026-04-21 15:56 28.52954 -78.47054 33338 ft 449 kts
2026-04-21 15:57 28.59183 -78.46229 33341 ft 450 kts
2026-04-21 15:57 28.65377 -78.45408 33344 ft 452 kts
2026-04-21 15:58 28.71629 -78.44578 33338 ft 452 kts
2026-04-21 15:58 28.77887 -78.43746 33341 ft 452 kts
2026-04-21 15:59 28.84145 -78.42913 33345 ft 452 kts
2026-04-21 15:59 28.90386 -78.42082 33348 ft 451 kts
2026-04-21 16:00 28.96610 -78.41251 33345 ft 450 kts
2026-04-21 16:00 29.02821 -78.40422 33347 ft 448 kts
2026-04-21 16:01 29.08965 -78.39600 33350 ft 446 kts
2026-04-21 16:01 29.15129 -78.38775 33348 ft 444 kts
2026-04-21 16:02 29.20232 -78.38091 33351 ft 442 kts
2026-04-21 16:02 29.27366 -78.37134 33351 ft 440 kts
2026-04-21 16:03 29.32413 -78.36457 33348 ft 438 kts
2026-04-21 16:03 29.39450 -78.35511 33349 ft 437 kts
2026-04-21 16:04 29.44466 -78.34836 33356 ft 436 kts
2026-04-21 16:04 29.50427 -78.34719 33354 ft 419 kts 341°
2026-04-21 16:05 29.56019 -78.36547 33362 ft 417 kts 338°
2026-04-21 16:05 29.61609 -78.38444 33349 ft 419 kts 339°
2026-04-21 16:06 29.67224 -78.40304 33355 ft 421 kts 339°
2026-04-21 16:06 29.72874 -78.42149 33357 ft 423 kts 339°
2026-04-21 16:07 29.78549 -78.43998 33353 ft 424 kts 339°
2026-04-21 16:07 29.84166 -78.45830 33353 ft 424 kts 339°
2026-04-21 16:08 29.92687 -78.48615 33355 ft 424 kts 339°
2026-04-21 16:09 29.98373 -78.50477 33362 ft 424 kts 339°
2026-04-21 16:09 30.04039 -78.52335 33351 ft 423 kts 339°
2026-04-21 16:10 30.09704 -78.54194 33359 ft 423 kts 338°
2026-04-21 16:10 30.15518 -78.55496 33364 ft 432 kts 350°
2026-04-21 16:11 30.21553 -78.55083 33366 ft 441 kts
2026-04-21 16:11 30.27645 -78.54133 33356 ft 441 kts
2026-04-21 16:12 30.33739 -78.53224 33358 ft 441 kts 360°
2026-04-21 16:12 30.39822 -78.52353 33359 ft 440 kts 360°
2026-04-21 16:13 30.45913 -78.51444 33360 ft 441 kts
2026-04-21 16:13 30.51989 -78.50452 33361 ft 441 kts
2026-04-21 16:14 30.58020 -78.49459 33364 ft 440 kts
2026-04-21 16:14 30.64085 -78.48468 33365 ft 440 kts
2026-04-21 16:15 30.70146 -78.47482 33361 ft 439 kts
2026-04-21 16:15 30.76191 -78.46499 33359 ft 438 kts
2026-04-21 16:16 30.82229 -78.45516 33353 ft 438 kts
2026-04-21 16:16 30.88259 -78.44534 33358 ft 437 kts
2026-04-21 16:17 30.94276 -78.43551 33351 ft 436 kts
2026-04-21 16:17 31.00286 -78.42569 33353 ft 435 kts
2026-04-21 16:18 31.06292 -78.41587 33349 ft 435 kts
2026-04-21 16:18 31.12248 -78.40611 33346 ft 434 kts
2026-04-21 16:19 31.18236 -78.39629 33346 ft 434 kts 360°
2026-04-21 16:19 31.24238 -78.38643 33346 ft 435 kts 360°
2026-04-21 16:20 31.30233 -78.37658 33351 ft 435 kts 360°
2026-04-21 16:20 31.36232 -78.36670 33349 ft 436 kts 360°
2026-04-21 16:21 31.42247 -78.35679 33354 ft 437 kts 360°
2026-04-21 16:21 31.48217 -78.34693 33354 ft 438 kts 360°
2026-04-21 16:22 31.54224 -78.33700 33353 ft 439 kts 360°
2026-04-21 16:22 31.60272 -78.32698 33358 ft 439 kts 360°
2026-04-21 16:23 31.66333 -78.31693 33356 ft 440 kts 359°
2026-04-21 16:23 31.72391 -78.30688 33353 ft 440 kts 360°
2026-04-21 16:24 31.78421 -78.29685 33353 ft 439 kts 359°
2026-04-21 16:24 31.84486 -78.28675 33354 ft 439 kts 359°
2026-04-21 16:25 31.90543 -78.27666 33361 ft 438 kts 359°
2026-04-21 16:25 31.96544 -78.26664 33356 ft 438 kts 359°
2026-04-21 16:26 32.02581 -78.25656 33363 ft 437 kts 359°
2026-04-21 16:26 32.08607 -78.24743 33359 ft 435 kts 358°
2026-04-21 16:27 32.14617 -78.23887 33359 ft 435 kts 358°
2026-04-21 16:27 32.20626 -78.23025 33363 ft 434 kts 358°
2026-04-21 16:28 32.26621 -78.22154 33359 ft 434 kts 358°
2026-04-21 16:28 32.32621 -78.21276 33354 ft 434 kts 358°
2026-04-21 16:29 32.38575 -78.20402 33357 ft 434 kts 358°
2026-04-21 16:29 32.44564 -78.19523 33356 ft 433 kts 358°
2026-04-21 16:30 32.50557 -78.18642 33360 ft 434 kts 358°
2026-04-21 16:30 32.56549 -78.17761 33360 ft 434 kts 358°
2026-04-21 16:31 32.62552 -78.16876 33363 ft 435 kts 358°
2026-04-21 16:31 32.68567 -78.15989 33364 ft 435 kts 358°
2026-04-21 16:32 32.74554 -78.15104 33364 ft 436 kts 358°
2026-04-21 16:32 32.80583 -78.14212 33367 ft 437 kts 358°
2026-04-21 16:33 32.86625 -78.13316 33371 ft 438 kts 357°
2026-04-21 16:33 32.92672 -78.12419 33375 ft 438 kts 358°
2026-04-21 16:34 32.98734 -78.11518 33378 ft 439 kts 357°
2026-04-21 16:34 33.04811 -78.10613 33380 ft 440 kts 357°
2026-04-21 16:35 33.10892 -78.09707 33378 ft 441 kts 357°
2026-04-21 16:35 33.16984 -78.08798 33379 ft 441 kts 358°
2026-04-21 16:36 33.23085 -78.07886 33378 ft 442 kts 357°
2026-04-21 16:36 33.29182 -78.06973 33388 ft 442 kts 357°
2026-04-21 16:37 33.35290 -78.06057 33385 ft 442 kts 357°
2026-04-21 16:37 33.41396 -78.05141 33387 ft 442 kts 357°
2026-04-21 16:38 33.47472 -78.04228 33391 ft 443 kts 357°
2026-04-21 16:38 33.53596 -78.03306 33398 ft 443 kts 357°
2026-04-21 16:39 33.59719 -78.02383 33408 ft 444 kts 357°
2026-04-21 16:39 33.65853 -78.01458 33405 ft 444 kts 357°
2026-04-21 16:40 33.71989 -78.00530 33414 ft 445 kts 357°
2026-04-21 16:40 33.78110 -77.99603 33419 ft 446 kts 357°
2026-04-21 16:41 33.83230 -77.98827 33421 ft 446 kts 357°
2026-04-21 16:41 33.90437 -77.97934 33413 ft 441 kts 353°
2026-04-21 16:42 33.96573 -77.97723 33424 ft 440 kts 351°
2026-04-21 16:42 34.02710 -77.97578 33423 ft 441 kts 351°
2026-04-21 16:43 34.08828 -77.97394 33418 ft 443 kts 351°
2026-04-21 16:43 34.15010 -77.97180 33437 ft 444 kts 352°
2026-04-21 16:44 34.21206 -77.96955 33444 ft 445 kts 352°
2026-04-21 16:44 34.27418 -77.96728 33439 ft 446 kts 352°
2026-04-21 16:45 34.33598 -77.96504 33440 ft 447 kts 352°
2026-04-21 16:45 34.39833 -77.96277 33436 ft 448 kts 352°
2026-04-21 16:46 34.46085 -77.96050 33433 ft 449 kts 352°
2026-04-21 16:46 34.51279 -77.95862 33432 ft 449 kts 352°
2026-04-21 16:47 34.58564 -77.95596 33438 ft 450 kts 352°
2026-04-21 16:47 34.64831 -77.95368 33435 ft 451 kts 352°
2026-04-21 16:48 34.70041 -77.95178 33437 ft 451 kts 352°
2026-04-21 16:48 34.77349 -77.94910 33435 ft 452 kts 352°
2026-04-21 16:49 34.82619 -77.94717 33433 ft 452 kts 352°
2026-04-21 16:49 34.88926 -77.94486 33446 ft 453 kts 352°
2026-04-21 16:50 34.95194 -77.94256 33451 ft 454 kts 352°
2026-04-21 16:50 35.01509 -77.94023 33452 ft 454 kts 352°
2026-04-21 16:51 35.07837 -77.93790 33452 ft 455 kts 352°
2026-04-21 16:51 35.14172 -77.93556 33448 ft 455 kts 352°
2026-04-21 16:52 35.20512 -77.93321 33459 ft 456 kts 352°
2026-04-21 16:52 35.26850 -77.93086 33457 ft 456 kts 352°
2026-04-21 16:53 35.33142 -77.92942 33459 ft 452 kts 348°
2026-04-21 16:53 35.39395 -77.93410 33456 ft 449 kts 347°
2026-04-21 16:54 35.45623 -77.94006 33452 ft 449 kts 347°
2026-04-21 16:54 35.51875 -77.94570 33452 ft 450 kts 347°
2026-04-21 16:55 35.58135 -77.95099 33448 ft 451 kts 347°
2026-04-21 16:55 35.64396 -77.95617 33447 ft 451 kts 347°
2026-04-21 16:56 35.70657 -77.96136 33469 ft 451 kts 347°
2026-04-21 16:56 35.76925 -77.96657 33474 ft 451 kts 347°
2026-04-21 16:57 35.83196 -77.97180 33479 ft 452 kts 347°
2026-04-21 16:57 35.89432 -77.97701 33475 ft 452 kts 348°
2026-04-21 16:58 35.95706 -77.98226 33453 ft 452 kts 348°
2026-04-21 16:58 36.01986 -77.98753 33450 ft 452 kts 348°
2026-04-21 16:59 36.08268 -77.99281 33449 ft 452 kts 348°
2026-04-21 16:59 36.14546 -77.99809 33454 ft 452 kts 348°
2026-04-21 17:00 36.20791 -78.00335 33450 ft 452 kts 348°
2026-04-21 17:00 36.26060 -78.00780 33448 ft 452 kts 348°
2026-04-21 17:01 36.33362 -78.01397 33454 ft 452 kts 348°
2026-04-21 17:01 36.39712 -78.01410 33445 ft 466 kts
2026-04-21 17:02 36.46124 -77.99789 33465 ft 471 kts
2026-04-21 17:02 36.52494 -77.98021 33485 ft 471 kts
2026-04-21 17:03 36.58904 -77.96289 33487 ft 471 kts
2026-04-21 17:03 36.65323 -77.94595 33487 ft 471 kts
2026-04-21 17:04 36.71731 -77.92913 33486 ft 468 kts
2026-04-21 17:04 36.78044 -77.91252 33435 ft 464 kts
2026-04-21 17:05 36.84357 -77.89588 33438 ft 462 kts
2026-04-21 17:05 36.90635 -77.87931 33436 ft 460 kts
2026-04-21 17:06 36.96893 -77.86277 33447 ft 459 kts
2026-04-21 17:06 37.03154 -77.84620 33452 ft 460 kts
2026-04-21 17:07 37.09417 -77.82958 33448 ft 460 kts
2026-04-21 17:07 37.15701 -77.81288 33454 ft 462 kts
2026-04-21 17:08 37.21957 -77.79622 33449 ft 462 kts
2026-04-21 17:08 37.28254 -77.77941 33446 ft 463 kts
2026-04-21 17:09 37.37710 -77.75412 33434 ft 463 kts
2026-04-21 17:09 37.44021 -77.73721 33427 ft 463 kts
2026-04-21 17:10 37.50311 -77.71971 33439 ft 466 kts
2026-04-21 17:10 37.56320 -77.68531 33436 ft 484 kts 25°
2026-04-21 17:11 37.61951 -77.63848 33443 ft 484 kts 26°
2026-04-21 17:11 37.67539 -77.59219 33417 ft 483 kts 25°
2026-04-21 17:12 37.73198 -77.54636 33430 ft 481 kts 25°
2026-04-21 17:12 37.78848 -77.50057 33415 ft 481 kts 25°
2026-04-21 17:13 37.84472 -77.45481 33426 ft 480 kts 25°
2026-04-21 17:13 37.90053 -77.40932 33422 ft 480 kts 25°
2026-04-21 17:14 37.95667 -77.36348 33437 ft 480 kts 25°
2026-04-21 17:14 38.01288 -77.31752 33413 ft 480 kts 26°
2026-04-21 17:15 38.06919 -77.27146 33419 ft 480 kts 26°
2026-04-21 17:15 38.12537 -77.22544 33406 ft 481 kts 26°
2026-04-21 17:16 38.18120 -77.17958 33422 ft 481 kts 26°
2026-04-21 17:16 38.23734 -77.13339 33410 ft 481 kts 26°
2026-04-21 17:17 38.29347 -77.08699 33427 ft 482 kts 27°
2026-04-21 17:17 38.34794 -77.03643 33418 ft 485 kts 31°
2026-04-21 17:18 38.40138 -76.98385 33423 ft 485 kts 31°
2026-04-21 17:18 38.45497 -76.93148 33417 ft 485 kts 31°
2026-04-21 17:19 38.50872 -76.87946 33435 ft 484 kts 31°
2026-04-21 17:19 38.56215 -76.82781 33422 ft 484 kts 31°
2026-04-21 17:20 38.61591 -76.77571 33432 ft 484 kts 31°
2026-04-21 17:20 38.66956 -76.72358 33423 ft 483 kts 31°
2026-04-21 17:21 38.72310 -76.67146 33435 ft 482 kts 31°
2026-04-21 17:21 38.77643 -76.61946 33420 ft 482 kts 31°
2026-04-21 17:22 38.82929 -76.56781 33431 ft 481 kts 31°
2026-04-21 17:22 38.88239 -76.51583 33420 ft 480 kts 31°
2026-04-21 17:23 38.93541 -76.46381 33426 ft 479 kts 31°
2026-04-21 17:23 38.98823 -76.41190 33413 ft 478 kts 31°
2026-04-21 17:24 39.04057 -76.35933 33421 ft 479 kts 34°
2026-04-21 17:24 39.09043 -76.30174 32960 ft 488 kts 37°
2026-04-21 17:25 39.11542 -76.27193 32209 ft 490 kts 37°
2026-04-21 17:25 39.12779 -76.25718 31814 ft 490 kts 37°
2026-04-21 17:25 39.15290 -76.22739 30977 ft 491 kts 36°
2026-04-21 17:25 39.17825 -76.19758 29974 ft 494 kts 36°
2026-04-21 17:26 39.20368 -76.16781 28961 ft 495 kts 36°
2026-04-21 17:26 39.22919 -76.13795 28313 ft 490 kts 36°
2026-04-21 17:26 39.25403 -76.10884 27636 ft 485 kts 36°
2026-04-21 17:26 39.27880 -76.07975 27146 ft 476 kts 36°
2026-04-21 17:27 39.30295 -76.05132 26744 ft 467 kts 36°
2026-04-21 17:27 39.32686 -76.02319 26350 ft 463 kts 36°
2026-04-21 17:27 39.35087 -75.99499 25962 ft 468 kts 36°
2026-04-21 17:27 39.37501 -75.96664 25559 ft 470 kts 36°
2026-04-21 17:28 39.39910 -75.93825 25149 ft 465 kts 36°
2026-04-21 17:28 39.42289 -75.91014 24754 ft 461 kts 36°
2026-04-21 17:28 39.44646 -75.88226 24358 ft 457 kts 36°
2026-04-21 17:28 39.46978 -75.85466 23959 ft 453 kts 36°
2026-04-21 17:29 39.49300 -75.82716 23510 ft 450 kts 36°
2026-04-21 17:29 39.51602 -75.79989 23090 ft 446 kts 36°
2026-04-21 17:29 39.53880 -75.77287 22702 ft 441 kts 36°
2026-04-21 17:29 39.56131 -75.74615 22327 ft 437 kts 36°
2026-04-21 17:30 39.58362 -75.71964 21948 ft 433 kts 36°
2026-04-21 17:30 39.60547 -75.69367 21568 ft 430 kts 36°
2026-04-21 17:30 39.62745 -75.66751 21192 ft 425 kts 36°
2026-04-21 17:30 39.64917 -75.64163 20843 ft 422 kts 37°
2026-04-21 17:31 39.67079 -75.61587 20485 ft 421 kts 37°
2026-04-21 17:31 39.69232 -75.59015 20088 ft 420 kts 37°
2026-04-21 17:31 39.71361 -75.56456 19665 ft 416 kts 37°
2026-04-21 17:31 39.73477 -75.53905 19241 ft 412 kts 37°
2026-04-21 17:32 39.74864 -75.52231 18805 ft 413 kts 37°
2026-04-21 17:32 39.77676 -75.48841 18015 ft 409 kts 37°
2026-04-21 17:32 39.79740 -75.46345 17561 ft 401 kts 38°
2026-04-21 17:32 39.81731 -75.43935 17165 ft 392 kts 38°
2026-04-21 17:33 39.83712 -75.41538 16762 ft 385 kts 38°
2026-04-21 17:33 39.85660 -75.39182 16376 ft 381 kts 38°
2026-04-21 17:33 39.87605 -75.36830 16000 ft 382 kts 38°
2026-04-21 17:33 39.89555 -75.34472 15614 ft 384 kts 38°
2026-04-21 17:34 39.91508 -75.32105 15218 ft 382 kts 38°
2026-04-21 17:34 39.93446 -75.29751 14842 ft 379 kts 38°
2026-04-21 17:34 39.94721 -75.28202 14598 ft 378 kts 38°
2026-04-21 17:34 39.96640 -75.25869 14215 ft 376 kts 39°
2026-04-21 17:35 39.98540 -75.23555 13744 ft 368 kts 37°
2026-04-21 17:35 40.00389 -75.21299 13407 ft 361 kts 37°
2026-04-21 17:35 40.02219 -75.19069 13028 ft 357 kts 37°
2026-04-21 17:35 40.04026 -75.16868 12661 ft 355 kts 37°
2026-04-21 17:36 40.05811 -75.14692 12334 ft 354 kts 37°
2026-04-21 17:36 40.07606 -75.12502 11982 ft 352 kts 37°
2026-04-21 17:36 40.09379 -75.10335 11627 ft 345 kts 37°
2026-04-21 17:36 40.11117 -75.08207 11283 ft 339 kts 37°
2026-04-21 17:37 40.12819 -75.06122 10950 ft 333 kts 37°
2026-04-21 17:37 40.14490 -75.04074 10648 ft 326 kts 37°
2026-04-21 17:37 40.16129 -75.02064 10352 ft 319 kts 37°
2026-04-21 17:37 40.17733 -75.00097 10040 ft 313 kts 37°
2026-04-21 17:38 40.19298 -74.98175 9961 ft 300 kts 37°
2026-04-21 17:38 40.20784 -74.96347 9937 ft 286 kts 36°
2026-04-21 17:38 40.22198 -74.94608 9873 ft 273 kts 36°
2026-04-21 17:38 40.23568 -74.92924 9675 ft 268 kts 36°
2026-04-21 17:39 40.24927 -74.91257 9331 ft 267 kts 36°
2026-04-21 17:39 40.26240 -74.89562 8978 ft 269 kts 40°
2026-04-21 17:39 40.27516 -74.87772 8664 ft 268 kts 41°
2026-04-21 17:39 40.28783 -74.85970 8342 ft 268 kts 42°
2026-04-21 17:40 40.30043 -74.84182 8016 ft 267 kts 41°
2026-04-21 17:40 40.31296 -74.82411 7841 ft 263 kts 42°
2026-04-21 17:40 40.32533 -74.80667 7738 ft 259 kts 42°
2026-04-21 17:40 40.33772 -74.78928 7679 ft 263 kts 42°
2026-04-21 17:41 40.35032 -74.77158 7578 ft 268 kts 42°
2026-04-21 17:41 40.36307 -74.75362 7480 ft 268 kts 43°
2026-04-21 17:41 40.37574 -74.73570 7378 ft 266 kts 43°
2026-04-21 17:41 40.38835 -74.71799 7293 ft 264 kts 43°
2026-04-21 17:42 40.40069 -74.70064 7201 ft 262 kts 43°
2026-04-21 17:42 40.41310 -74.68314 7120 ft 261 kts 43°
2026-04-21 17:42 40.42737 -74.66912 7038 ft 254 kts 18°
2026-04-21 17:42 40.44420 -74.66322 6946 ft 249 kts
2026-04-21 17:43 40.46122 -74.65886 6878 ft 250 kts
2026-04-21 17:43 40.47840 -74.65442 6783 ft 252 kts
2026-04-21 17:43 40.49565 -74.64993 6689 ft 252 kts
2026-04-21 17:43 40.51285 -74.64541 6605 ft 252 kts
2026-04-21 17:44 40.52983 -74.64091 6522 ft 252 kts
2026-04-21 17:44 40.54703 -74.63631 6431 ft 253 kts
2026-04-21 17:44 40.56450 -74.63166 6352 ft 252 kts
2026-04-21 17:44 40.58151 -74.62711 6284 ft 253 kts
2026-04-21 17:45 40.59885 -74.62247 6195 ft 254 kts
2026-04-21 17:45 40.61624 -74.61781 6100 ft 255 kts
2026-04-21 17:45 40.63373 -74.61310 6011 ft 255 kts
2026-04-21 17:45 40.65086 -74.60851 5935 ft 255 kts
2026-04-21 17:46 40.66821 -74.60383 5845 ft 254 kts
2026-04-21 17:46 40.68554 -74.59923 5759 ft 254 kts
2026-04-21 17:46 40.70279 -74.59457 5683 ft 253 kts
2026-04-21 17:46 40.72006 -74.58991 5601 ft 253 kts
2026-04-21 17:47 40.73736 -74.58528 5514 ft 254 kts
2026-04-21 17:47 40.75460 -74.58061 5461 ft 252 kts 10°
2026-04-21 17:47 40.77184 -74.57595 5375 ft 253 kts
2026-04-21 17:47 40.78913 -74.57132 5286 ft 254 kts
2026-04-21 17:48 40.80639 -74.56664 5202 ft 254 kts 10°
2026-04-21 17:48 40.82363 -74.56200 5082 ft 252 kts
2026-04-21 17:48 40.84040 -74.55539 4985 ft 254 kts 29°
2026-04-21 17:48 40.85303 -74.53939 4912 ft 255 kts 57°
2026-04-21 17:49 40.85990 -74.51789 4844 ft 254 kts 72°
2026-04-21 17:49 40.86498 -74.49557 4770 ft 254 kts 73°
2026-04-21 17:49 40.86975 -74.47324 4691 ft 257 kts 74°
2026-04-21 17:49 40.87474 -74.45030 4615 ft 261 kts 73°
2026-04-21 17:50 40.87972 -74.42751 4497 ft 262 kts 73°
2026-04-21 17:50 40.88478 -74.40465 4389 ft 256 kts 74°
2026-04-21 17:50 40.88973 -74.38238 4360 ft 251 kts 73°
2026-04-21 17:50 40.89061 -74.37844 4346 ft 250 kts 73°
2026-04-21 17:51 40.89555 -74.35637 4264 ft 250 kts 73°
2026-04-21 17:51 40.90046 -74.33429 4189 ft 251 kts 74°
2026-04-21 17:51 40.90537 -74.31208 4049 ft 253 kts 74°
2026-04-21 17:51 40.91035 -74.28973 4003 ft 253 kts 74°
2026-04-21 17:52 40.91535 -74.26731 3991 ft 255 kts 74°
2026-04-21 17:52 40.92037 -74.24480 3975 ft 254 kts 74°
2026-04-21 17:52 40.92517 -74.22325 3984 ft 241 kts 74°
2026-04-21 17:52 40.92980 -74.20238 3979 ft 230 kts 74°
2026-04-21 17:53 40.93424 -74.18254 3966 ft 219 kts 74°
2026-04-21 17:53 40.93653 -74.16288 3964 ft 218 kts 101°
2026-04-21 17:53 40.93030 -74.14492 4003 ft 219 kts 135°
2026-04-21 17:53 40.91813 -74.13284 4002 ft 221 kts 151°
2026-04-21 17:54 40.90464 -74.12285 4003 ft 222 kts 152°
2026-04-21 17:54 40.89112 -74.11304 3992 ft 222 kts 152°
2026-04-21 17:54 40.87780 -74.10327 3989 ft 221 kts 152°
2026-04-21 17:54 40.86425 -74.09326 3774 ft 222 kts 152°
2026-04-21 17:55 40.85124 -74.08358 3733 ft 208 kts 152°
2026-04-21 17:55 40.83827 -74.07670 3540 ft 198 kts 178°
2026-04-21 17:55 40.82508 -74.07998 3198 ft 193 kts 202°
2026-04-21 17:55 40.81281 -74.08740 2832 ft 193 kts 206°
2026-04-21 17:56 40.80078 -74.09523 2496 ft 192 kts 206°
2026-04-21 17:56 40.78886 -74.10312 2147 ft 191 kts 207°
2026-04-21 17:56 40.77759 -74.11047 1839 ft 185 kts 206°
2026-04-21 17:56 40.76604 -74.11785 1600 ft 171 kts 206°
2026-04-21 17:57 40.75588 -74.12433 1385 ft 156 kts 206°
2026-04-21 17:57 40.74644 -74.13033 1153 ft 143 kts 206°
2026-04-21 17:57 40.73768 -74.13594 937 ft 139 kts 206°
2026-04-21 17:57 40.72888 -74.14156 743 ft 142 kts 206°
2026-04-21 17:58 40.71985 -74.14732 536 ft 146 kts 205°
2026-04-21 17:58 40.71060 -74.15322 322 ft 149 kts 205°
2026-04-21 17:58 40.70142 -74.15911 117 ft 144 kts 206°
2026-04-21 17:58 40.69267 -74.16468 26 ft 130 kts 206°
2026-04-21 17:59 40.68596 -74.16895 21 ft 84 kts 206°
2026-04-21 17:59 40.68406 -74.17018 21 ft 21 kts 209°
2026-04-21 17:59 40.68294 -74.17134 22 ft 18 kts 225°
2026-04-21 17:59 40.68233 -74.17238 21 ft 13 kts 236°
2026-04-21 18:00 40.68182 -74.17338 23 ft 13 kts 236°
2026-04-21 18:00 40.68146 -74.17432 20 ft 10 kts 273°
2026-04-21 18:00 40.68169 -74.17512 22 ft 9 kts 295°
2026-04-21 18:00 40.68197 -74.17587 21 ft 9 kts 296°
2026-04-21 18:01 40.68229 -74.17652 21 ft 8 kts 337°
2026-04-21 18:01 40.68278 -74.17635 21 ft 7 kts 26°
2026-04-21 18:01 40.68324 -74.17606 21 ft 7 kts 25°
2026-04-21 18:01 40.68368 -74.17578 22 ft 7 kts 26°
2026-04-21 18:02 40.68412 -74.17550 22 ft 8 kts 26°
2026-04-21 18:02 40.68470 -74.17512 22 ft 12 kts 26°
2026-04-21 18:02 40.68560 -74.17455 22 ft 17 kts 25°
2026-04-21 18:02 40.68676 -74.17382 22 ft 20 kts 26°
2026-04-21 18:03 40.68806 -74.17299 22 ft 21 kts 26°
2026-04-21 18:03 40.68933 -74.17218 22 ft 19 kts 25°
2026-04-21 18:03 40.69052 -74.17143 21 ft 19 kts 26°
2026-04-21 18:03 40.69167 -74.17070 24 ft 18 kts 25°
2026-04-21 18:04 40.69274 -74.17003 21 ft 16 kts 21°
2026-04-21 18:04 40.69380 -74.16974 21 ft 15 kts
2026-04-21 18:04 40.69465 -74.16974 21 ft 11 kts 355°
2026-04-21 18:04 40.69530 -74.16996 23 ft 8 kts 324°
2026-04-21 18:05 40.69533 -74.17021 23 ft 3 kts 255°
2026-04-21 18:05 40.69524 -74.17069 21 ft 7 kts 258°
2026-04-21 18:05 40.69515 -74.17132 21 ft 7 kts 259°
2026-04-21 18:05 40.69506 -74.17193 21 ft 7 kts 252°
2026-04-21 18:06 40.69486 -74.17243 21 ft 6 kts 237°
2026-04-21 18:06 40.69475 -74.17264 21 ft 0 kts 237°